Meteo pe oră la Abbotsford

Astăzi, 3 August, Marţi

Timp Temperatura Precipitaţii Vânt Presiune Umiditate
00:00 +20°C° 0 mm 1 m/s 756 mmHg 81%
01:00 +20°C° 0 mm 1 m/s 756 mmHg 80%
02:00 +20°C° 0 mm 1 m/s 756 mmHg 79%
03:00 +19°C° 0 mm 1 m/s 756 mmHg 78%
04:00 +19°C° 0 mm 1 m/s 756 mmHg 77%
05:00 +18°C° 0 mm 0 m/s 756 mmHg 73%
06:00 +20°C° 0 mm 0 m/s 756 mmHg 70%
07:00 +21°C° 0 mm 0 m/s 756 mmHg 67%
08:00 +25°C° 0 mm 1 m/s 756 mmHg 60%
09:00 +27°C° 0 mm 1 m/s 756 mmHg 54%
10:00 +29°C° 0 mm 1 m/s 756 mmHg 48%
11:00 +30°C° 0 mm 2 m/s 755 mmHg 45%
12:00 +31°C° 0 mm 2 m/s 755 mmHg 42%
13:00 +33°C° 0 mm 3 m/s 755 mmHg 39%
14:00 +32°C° 0 mm 2 m/s 754 mmHg 38%
15:00 +32°C° 0 mm 2 m/s 754 mmHg 37%
16:00 +31°C° 0 mm 2 m/s 754 mmHg 37%
17:00 +29°C° 0 mm 2 m/s 754 mmHg 46%
18:00 +26°C° 0 mm 2 m/s 754 mmHg 55%
19:00 +24°C° 0 mm 1 m/s 754 mmHg 64%
20:00 +22°C° 0 mm 1 m/s 754 mmHg 67%
21:00 +21°C° 0 mm 1 m/s 754 mmHg 70%
22:00 +20°C° 0 mm 1 m/s 754 mmHg 73%
23:00 +19°C° 0 mm 1 m/s 754 mmHg 74%

Mâine, 4 August, Miercuri

Timp Temperatura Precipitaţii Vânt Presiune Umiditate
00:00 +19°C° 0 mm 1 m/s 754 mmHg 76%
01:00 +18°C° 0 mm 1 m/s 755 mmHg 77%
02:00 +18°C° 0 mm 1 m/s 755 mmHg 79%
03:00 +16°C° 0 mm 1 m/s 755 mmHg 80%
04:00 +16°C° 0 mm 1 m/s 755 mmHg 82%
05:00 +18°C° 0 mm 1 m/s 755 mmHg 76%
06:00 +20°C° 0 mm 1 m/s 755 mmHg 70%
07:00 +20°C° 0 mm 0 m/s 755 mmHg 64%
08:00 +23°C° 0 mm 1 m/s 755 mmHg 59%
09:00 +25°C° 0 mm 1 m/s 755 mmHg 53%
10:00 +27°C° 0 mm 2 m/s 755 mmHg 48%
11:00 +28°C° 0 mm 2 m/s 754 mmHg 44%
12:00 +29°C° 0 mm 2 m/s 754 mmHg 41%
13:00 +30°C° 0 mm 2 m/s 754 mmHg 37%
14:00 +30°C° 0 mm 2 m/s 754 mmHg 37%
15:00 +30°C° 0 mm 2 m/s 753 mmHg 37%
16:00 +30°C° 0 mm 2 m/s 753 mmHg 37%
17:00 +28°C° 0 mm 2 m/s 753 mmHg 47%
18:00 +25°C° 0 mm 1 m/s 753 mmHg 56%
19:00 +23°C° 0 mm 1 m/s 752 mmHg 66%
20:00 +22°C° 0 mm 1 m/s 752 mmHg 69%
21:00 +20°C° 0 mm 1 m/s 753 mmHg 72%
22:00 +19°C° 0 mm 1 m/s 753 mmHg 75%
23:00 +19°C° 0 mm 1 m/s 753 mmHg 74%

Poimâine, 5 August, Joi

Timp Temperatura Precipitaţii Vânt Presiune Umiditate
00:00 +19°C° 0 mm 1 m/s 753 mmHg 73%
01:00 +19°C° 0 mm 1 m/s 753 mmHg 72%
02:00 +18°C° 0 mm 1 m/s 753 mmHg 73%
03:00 +18°C° 0 mm 1 m/s 753 mmHg 73%
04:00 +18°C° 0 mm 1 m/s 753 mmHg 74%
05:00 +19°C° 0 mm 1 m/s 753 mmHg 71%
06:00 +20°C° 0 mm 1 m/s 753 mmHg 68%
07:00 +21°C° 0 mm 1 m/s 753 mmHg 66%
08:00 +23°C° 0 mm 1 m/s 753 mmHg 61%
09:00 +25°C° 0 mm 2 m/s 753 mmHg 57%
10:00 +26°C° 0 mm 2 m/s 753 mmHg 52%
11:00 +27°C° 0 mm 2 m/s 753 mmHg 50%
12:00 +29°C° 0 mm 2 m/s 752 mmHg 48%
13:00 +30°C° 0 mm 3 m/s 752 mmHg 45%
14:00 +29°C° 0 mm 3 m/s 752 mmHg 45%
15:00 +29°C° 0 mm 3 m/s 751 mmHg 44%
16:00 +29°C° 0 mm 3 m/s 751 mmHg 44%
17:00 +27°C° 0 mm 2 m/s 751 mmHg 53%
18:00 +25°C° 0 mm 1 m/s 751 mmHg 62%
19:00 +23°C° 0 mm 1 m/s 751 mmHg 71%
20:00 +22°C° 0 mm 1 m/s 751 mmHg 75%
21:00 +21°C° 0 mm 1 m/s 752 mmHg 79%
22:00 +20°C° 0 mm 1 m/s 752 mmHg 83%
23:00 +20°C° 0 mm 1 m/s 752 mmHg 85%

6 August, Vineri

Timp Temperatura Precipitaţii Vânt Presiune Umiditate
00:00 +19°C° 0 mm 1 m/s 753 mmHg 87%
01:00 +19°C° 0 mm 1 m/s 753 mmHg 88%
02:00 +18°C° 0 mm 2 m/s 753 mmHg 89%
03:00 +18°C° 0 mm 2 m/s 753 mmHg 90%
04:00 +19°C° 0 mm 2 m/s 753 mmHg 91%
05:00 +18°C° 0.5 mm 2 m/s 753 mmHg 92%
06:00 +18°C° 0.5 mm 2 m/s 753 mmHg 93%
07:00 +18°C° 0.5 mm 2 m/s 753 mmHg 93%
08:00 +19°C° 0.1 mm 2 m/s 753 mmHg 83%
09:00 +20°C° 0.1 mm 2 m/s 754 mmHg 73%
10:00 +21°C° 0.1 mm 2 m/s 754 mmHg 63%
11:00 +22°C° 0 mm 3 m/s 754 mmHg 57%
12:00 +24°C° 0 mm 3 m/s 754 mmHg 51%
13:00 +25°C° 0 mm 3 m/s 754 mmHg 44%
14:00 +25°C° 0 mm 3 m/s 754 mmHg 42%
15:00 +26°C° 0 mm 4 m/s 754 mmHg 39%
16:00 +26°C° 0 mm 4 m/s 753 mmHg 37%
17:00 +24°C° 0 mm 3 m/s 753 mmHg 42%
18:00 +21°C° 0 mm 3 m/s 753 mmHg 46%
19:00 +20°C° 0 mm 3 m/s 753 mmHg 51%
20:00 +19°C° 0 mm 2 m/s 754 mmHg 52%
21:00 +19°C° 0 mm 2 m/s 754 mmHg 53%
22:00 +18°C° 0 mm 2 m/s 754 mmHg 54%
23:00 +17°C° 0 mm 2 m/s 754 mmHg 58%

7 August, Sâmbătă

Timp Temperatura Precipitaţii Vânt Presiune Umiditate
00:00 +17°C° 0 mm 2 m/s 754 mmHg 63%
01:00 +16°C° 0 mm 1 m/s 754 mmHg 68%
02:00 +16°C° 0 mm 1 m/s 754 mmHg 71%
03:00 +16°C° 0 mm 1 m/s 754 mmHg 74%
04:00 +16°C° 0 mm 1 m/s 754 mmHg 77%
05:00 +15°C° 0.1 mm 1 m/s 754 mmHg 80%
06:00 +15°C° 0.1 mm 1 m/s 754 mmHg 83%
07:00 +15°C° 0.1 mm 1 m/s 754 mmHg 87%
08:00 +15°C° 0.2 mm 1 m/s 754 mmHg 89%
09:00 +14°C° 0.2 mm 0 m/s 754 mmHg 91%
10:00 +14°C° 0.2 mm 0 m/s 754 mmHg 94%
11:00 +14°C° 0.2 mm 0 m/s 753 mmHg 94%
12:00 +14°C° 0.2 mm 0 m/s 753 mmHg 94%
13:00 +15°C° 0.2 mm 0 m/s 753 mmHg 93%
14:00 +15°C° 0.4 mm 0 m/s 753 mmHg 94%
15:00 +15°C° 0.4 mm 0 m/s 752 mmHg 95%
16:00 +15°C° 0.4 mm 0 m/s 752 mmHg 95%
17:00 +15°C° 0.3 mm 0 m/s 752 mmHg 96%
18:00 +15°C° 0.3 mm 0 m/s 751 mmHg 96%
19:00 +14°C° 0.3 mm 0 m/s 751 mmHg 97%
20:00 +14°C° 0.2 mm 0 m/s 751 mmHg 97%
21:00 +14°C° 0.2 mm 0 m/s 751 mmHg 98%
22:00 +15°C° 0.2 mm 1 m/s 751 mmHg 98%
23:00 +15°C° 0.1 mm 1 m/s 751 mmHg 98%

8 August, Duminică

Timp Temperatura Precipitaţii Vânt Presiune Umiditate
00:00 +15°C° 0.1 mm 1 m/s 751 mmHg 98%
01:00 +15°C° 0.1 mm 1 m/s 751 mmHg 97%
02:00 +15°C° 0.2 mm 1 m/s 751 mmHg 98%
03:00 +15°C° 0.2 mm 1 m/s 752 mmHg 98%
04:00 +15°C° 0.2 mm 1 m/s 752 mmHg 99%
05:00 +15°C° 0.1 mm 1 m/s 752 mmHg 98%
06:00 +15°C° 0.1 mm 1 m/s 753 mmHg 97%
07:00 +16°C° 0.1 mm 1 m/s 753 mmHg 96%
08:00 +16°C° 0.2 mm 1 m/s 753 mmHg 92%
09:00 +18°C° 0.2 mm 1 m/s 754 mmHg 88%
10:00 +19°C° 0.2 mm 1 m/s 754 mmHg 84%
11:00 +20°C° 0.2 mm 1 m/s 754 mmHg 78%
12:00 +21°C° 0.2 mm 1 m/s 754 mmHg 71%
13:00 +22°C° 0.2 mm 1 m/s 754 mmHg 65%
14:00 +22°C° 0.1 mm 1 m/s 754 mmHg 62%
15:00 +23°C° 0.1 mm 1 m/s 754 mmHg 58%
16:00 +23°C° 0.1 mm 1 m/s 754 mmHg 55%
17:00 +22°C° 0 mm 1 m/s 753 mmHg 61%
18:00 +21°C° 0 mm 1 m/s 753 mmHg 66%
19:00 +20°C° 0 mm 1 m/s 753 mmHg 71%
20:00 +18°C° 0 mm 1 m/s 754 mmHg 75%
21:00 +16°C° 0 mm 1 m/s 754 mmHg 80%
22:00 +15°C° 0 mm 1 m/s 754 mmHg 84%
23:00 +15°C° 0 mm 1 m/s 754 mmHg 86%
Arată mai mult

Formular de consimțământ

Meteoprog și furnizorii noștri de servicii pot stoca și accesa date personale, precum cookies, identificatori de dispozitiv sau alte tehnologii similare pe dispozitivul dumneavoastră și procesa astfel de date pentru a personaliza conținutul și reclamele, dar și pentru a oferi caracteristici de social media și pentru a analiza traficul.

  • Stocarea și/sau accesarea informațiilor pe dispozitivul dumneavoastră

    Cookies, identificatori de dispozitiv sau alte informații pot fi stocate sau accesate pe dispozitiv în scopurile indicate mai sus.

  • Reclame și conținut personalizat, evaluarea reclamelor și a conținutului, informații despre audiențe și dezvoltarea produselor

    Reclamele și conținutul pot fi personalizate pe baza unui profil. Pot fi adăugate date suplimentare pentru a personaliza mai bine reclamele și conținutul. Performanța reclamelor și conținutului poate fi măsurată. Pot fi obținute informații despre utilizatorii care au văzut reclamele și conținutul. Aceste date pot fi utilizate pentru a dezvolta sau îmbunătăți experiența utilizatorilor, sistemele și software-ul.

Dând clic pe ‘Sunt de acord’, permiteți utilizarea cookie-urilor menționate, a identificatorilor de dispozitiv, balizelor web sau altor tehnologii similare. Setările pot fi modificate din browser-ul dispozitivului dumneavoastră.

În anumite scopuri, interesele legitime pot prima asupra consimțământului. Puteți citi mai multe informații în acest sens în Politica privind Confidențialitatea Datelor și Cookie.